map of AHO home
Great Circle Mapper logo
AHO - Airport
Location
City:  Alghero, Sardinia, Italy
Name:Fertilia
ICAO:LIEA
IATA:AHO

Details
Type:Airport (Aerodrome, Airfield)
Use:Public/Civil, International (customs port of entry)
Latitude:4037'56"N (40.632133)
Longitude:817'27"E (8.290772)
Datum:WGS 1984
Elevation:87 ft (27 m)
Variation:2.02E (WMM2015 magnetic declination)
0.11 annual change
Runways:1
Longest:9843 × 148 ft (3000 × 45 m), paved

Time
Time Zone:UTC+1 (DST+2)
Local Time:

Weather
METAR:LIEA 301620Z 31007KT 280V340 9999 RA FEW015 SCT045 13/11 Q1017
TAF:LIEA 301100Z 3012/0112 32015KT 9999 SCT030
TEMPO 3012/3018 4000 RA
TEMPO 3018/3024 4000 SHRA

Related Locations
Nearby:
Farthest:CHT: 12108 mi / 19486 km
Waitangi [Tuuta], Chatham Islands, NZ

Find:

   beyond  
but within

Other Information
Maps:
NOTAMs:
Links:
Sources:

  
flag of Italy
flag of Sardinia
  

Sectional Chart

Flight Planning
at skyvector.com

Satellite Image

Google Maps Satellite view

 

Copyright © 2004-2016 Karl L. Swartz. All rights reserved.
The Great Circle Mapper name and logo are trademarks of the Great Circle Mapper.
All other trademarks mentioned herein belong to their respective owners.
Please see credits for attibutions and further copyright information.

  Follow gcmap on Facebook Follow gcmap on Twitter Follow gcmap on Google+ GCmap on LinkedIn

hCard Microformat

Geo Microformat